EW9655 Weather Reports


Display with metric or nautical units.
time (UTC)temp
F
wind
direction
speed
MPH
gust
MPH
rain 1hr
in
rain 24hr
in
rain mn
in
humidity
%
barometer
mb
20190124003215 27 5 0.0 0.0 0.00 0.00 0.00 27 1009.9
20190124002715 27 5 0.0 0.0 0.00 0.00 0.00 27 1009.9
20190124002215 27 5 0.0 3.0 0.00 0.00 0.00 28 1009.8
20190124001715 27 5 0.0 3.0 0.00 0.00 0.00 27 1009.7
20190124001216 27 5 0.0 5.0 0.00 0.00 0.00 28 1009.7
20190124000715 27 5 1.0 5.0 0.00 0.00 0.00 28 1009.5
20190124000215 27 59 1.0 5.0 0.00 0.00 0.00 28 1009.5
20190123235715 27 59 0.0 5.0 0.00 0.00 0.00 28 1009.5
20190123235215 27 5 0.0 6.0 0.00 0.00 0.00 28 1009.4
20190123234715 27 5 2.0 8.0 0.00 0.00 0.00 28 1009.4
20190123234215 27 77 3.0 8.0 0.00 0.00 0.00 28 1009.2
20190123233715 27 44 2.0 8.0 0.00 0.00 0.00 28 1009.2
20190123233215 27 41 1.0 5.0 0.00 0.00 0.00 28 1009.2
20190123232714 27 41 2.0 5.0 0.00 0.00 0.00 28 1009.1
20190123232216 27 34 2.0 5.0 0.00 0.00 0.00 28 1009.0
20190123231715 27 45 2.0 5.0 0.00 0.00 0.00 28 1008.9
20190123231216 27 32 2.0 5.0 0.00 0.00 0.00 28 1008.8
20190123230715 27 80 1.0 5.0 0.00 0.00 0.00 28 1008.7
20190123230215 28 29 2.0 5.0 0.00 0.00 0.00 28 1008.7
20190123225716 28 23 2.0 4.0 0.00 0.00 0.00 28 1008.6
20190123225216 28 38 1.0 3.0 0.00 0.00 0.00 28 1008.5
20190123224715 28 17 0.0 3.0 0.00 0.00 0.00 28 1008.5
20190123224215 28 9 0.0 7.0 0.00 0.00 0.00 28 1008.4
20190123223715 28 345 1.0 7.0 0.00 0.00 0.00 28 1008.3
20190123223215 28 26 2.0 7.0 0.00 0.00 0.00 28 1008.3
20190123222715 28 26 1.0 4.0 0.00 0.00 0.00 28 1008.1
20190123222216 28 38 0.0 5.0 0.00 0.00 0.00 28 1008.1
20190123221715 28 38 2.0 5.0 0.00 0.00 0.00 28 1008.1
20190123221214 29 37 3.0 5.0 0.00 0.00 0.00 28 1007.9
20190123220716 29 5 1.0 5.0 0.00 0.00 0.00 28 1007.9
20190123220216 29 55 2.0 5.0 0.00 0.00 0.00 28 1007.8
20190123215715 29 73 2.0 5.0 0.00 0.00 0.00 28 1007.7
20190123215216 29 24 2.0 5.0 0.00 0.00 0.00 28 1007.7
20190123214715 29 61 2.0 6.0 0.00 0.00 0.00 28 1007.7
20190123214216 29 60 3.0 9.0 0.00 0.00 0.00 28 1007.6
20190123213716 29 64 3.0 9.0 0.00 0.00 0.00 28 1007.5
20190123213216 30 61 4.0 9.0 0.00 0.00 0.00 28 1007.5
20190123212716 30 65 3.0 5.0 0.00 0.00 0.00 28 1007.4
20190123212215 29 64 1.0 5.0 0.00 0.00 0.00 28 1007.4
20190123211715 29 51 0.0 0.0 0.00 0.00 0.00 28 1007.3
20190123211215 29 60 0.0 0.0 0.00 0.00 0.00 28 1007.2
20190123210715 29 60 0.0 0.0 0.00 0.00 0.00 28 1007.2
20190123210216 29 60 0.0 0.0 0.00 0.00 0.00 28 1007.1
20190123205715 29 65 0.0 0.0 0.00 0.00 0.00 28 1007.1
20190123205215 29 65 0.0 0.0 0.00 0.00 0.00 28 1007.0
20190123204716 29 32 0.0 0.0 0.00 0.00 0.00 28 1007.0
20190123204216 29 32 0.0 0.0 0.00 0.00 0.00 28 1007.0
20190123203715 29 32 0.0 0.0 0.00 0.00 0.00 28 1006.9
20190123203214 29 32 0.0 0.0 0.00 0.00 0.00 28 1006.7
20190123202716 30 32 0.0 0.0 0.00 0.00 0.00 28 1006.7
20190123202215 30 32 0.0 0.0 0.00 0.00 0.00 28 1006.6
20190123201715 29 57 0.0 0.0 0.00 0.00 0.00 28 1006.6
20190123201215 29 57 0.0 0.0 0.00 0.00 0.00 28 1006.5
20190123200715 29 34 0.0 0.0 0.00 0.00 0.00 28 1006.4
20190123200215 29 34 0.0 0.0 0.00 0.00 0.00 28 1006.4
20190123195716 29 34 0.0 0.0 0.00 0.00 0.00 28 1006.4
20190123195215 29 34 0.0 0.0 0.00 0.00 0.00 28 1006.4
20190123194716 29 34 0.0 0.0 0.00 0.00 0.00 28 1006.3
20190123194216 29 34 0.0 0.0 0.00 0.00 0.00 28 1006.4
20190123193715 29 34 0.0 0.0 0.00 0.00 0.00 28 1006.3
20190123193215 29 34 0.0 0.0 0.00 0.00 0.00 28 1006.3
20190123192715 29 34 0.0 0.0 0.00 0.00 0.00 28 1006.2
20190123192216 29 34 0.0 0.0 0.00 0.00 0.00 28 1006.1
20190123191715 29 34 0.0 0.0 0.00 0.00 0.00 28 1006.1
20190123191215 29 34 0.0 0.0 0.00 0.00 0.00 28 1006.1
20190123190715 29 34 0.0 0.0 0.00 0.00 0.00 28 1006.0
20190123190215 29 34 0.0 0.0 0.00 0.00 0.00 28 1005.9
20190123185715 29 34 0.0 0.0 0.00 0.00 0.00 28 1005.8
20190123185215 29 34 0.0 0.0 0.00 0.00 0.00 28 1005.8
20190123184715 30 34 0.0 0.0 0.00 0.00 0.00 28 1005.8
20190123184215 30 34 0.0 0.0 0.00 0.00 0.00 28 1005.8
20190123183715 30 34 0.0 0.0 0.00 0.00 0.00 28 1005.7
20190123183215 30 34 0.0 0.0 0.00 0.00 0.00 28 1005.6
20190123182715 30 34 0.0 0.0 0.00 0.00 0.00 28 1005.6
20190123182215 30 34 0.0 0.0 0.00 0.00 0.00 28 1005.5
20190123181716 30 34 0.0 0.0 0.00 0.00 0.00 28 1005.4
20190123181215 30 34 0.0 0.0 0.00 0.00 0.00 28 1005.4
20190123180715 30 34 0.0 0.0 0.00 0.00 0.00 28 1005.3
20190123180216 30 34 0.0 0.0 0.00 0.00 0.00 28 1005.3
20190123175715 30 34 0.0 0.0 0.00 0.00 0.00 28 1005.3
20190123175215 30 34 0.0 0.0 0.00 0.00 0.00 28 1005.2
20190123174716 30 34 0.0 0.0 0.00 0.00 0.00 28 1005.2
20190123174216 30 34 0.0 0.0 0.00 0.00 0.00 28 1005.1
20190123173715 30 34 0.0 0.0 0.00 0.00 0.00 28 1005.1
20190123173215 30 34 0.0 0.0 0.00 0.00 0.00 28 1005.0
20190123172715 30 33 0.0 0.0 0.00 0.00 0.00 28 1005.0
20190123172215 30 34 0.0 0.0 0.00 0.00 0.00 28 1005.0
20190123171716 30 50 0.0 0.0 0.00 0.00 0.00 28 1004.8
20190123171215 30 49 0.0 0.0 0.00 0.00 0.00 28 1004.7
20190123170714 30 59 0.0 0.0 0.00 0.00 0.00 28 1004.7
20190123170216 30 60 0.0 0.0 0.00 0.00 0.00 28 1004.6
20190123165715 30 60 0.0 0.0 0.00 0.00 0.00 28 1004.6
20190123165215 30 60 0.0 0.0 0.00 0.00 0.00 28 1004.5
20190123164715 30 60 0.0 0.0 0.00 0.00 0.00 28 1004.5
20190123164216 30 62 0.0 0.0 0.00 0.00 0.00 28 1004.3
20190123163715 30 62 0.0 0.0 0.00 0.00 0.00 28 1004.3
20190123163215 30 62 0.0 0.0 0.00 0.00 0.00 28 1004.2
20190123162715 30 62 0.0 0.0 0.00 0.00 0.00 28 1004.2
20190123162215 30 62 0.0 0.0 0.00 0.00 0.00 28 1004.1
20190123161715 31 62 0.0 0.0 0.00 0.00 0.00 28 1004.1
20190123161216 31 63 0.0 0.0 0.00 0.00 0.00 28 1003.8
20190123160715 31 63 0.0 0.0 0.00 0.00 0.00 28 1003.8
20190123160215 31 63 0.0 0.0 0.00 0.00 0.00 28 1003.6
20190123155715 31 63 0.0 2.0 0.00 0.00 0.00 28 1003.5
20190123155215 31 63 0.0 6.0 0.00 0.00 0.00 28 1003.5
20190123154715 31 63 1.0 6.0 0.00 0.00 0.00 28 1003.4
20190123154215 31 63 2.0 6.0 0.00 0.00 0.00 28 1003.4
20190123153715 31 63 2.0 6.0 0.00 0.00 0.00 28 1003.3
20190123153215 31 46 2.0 7.0 0.00 0.00 0.00 28 1003.3
20190123152715 31 45 2.0 7.0 0.00 0.00 0.00 28 1003.2
20190123152216 31 49 3.0 7.0 0.00 0.00 0.00 28 1003.2
20190123151716 31 57 4.0 7.0 0.00 0.00 0.00 28 1003.1
20190123151215 31 79 4.0 6.0 0.00 0.00 0.00 28 1003.0
20190123150715 31 69 4.0 6.0 0.00 0.00 0.00 28 1003.0
20190123150216 31 67 3.0 6.0 0.00 0.00 0.00 28 1002.9
20190123145716 31 71 3.0 6.0 0.00 0.00 0.00 28 1002.8
20190123145215 31 49 2.0 8.0 0.00 0.00 0.00 28 1002.8
20190123144715 31 58 3.0 8.0 0.00 0.00 0.00 28 1002.7
20190123144215 31 61 4.0 8.0 0.00 0.00 0.00 28 1002.6
20190123143715 31 62 4.0 8.0 0.00 0.00 0.00 28 1002.6
20190123143215 31 59 4.0 8.0 0.00 0.00 0.00 28 1002.5
20190123142716 31 60 2.0 5.0 0.00 0.00 0.00 28 1002.4
20190123142215 31 58 2.0 5.0 0.00 0.00 0.00 28 1002.4
20190123141715 31 42 3.0 5.0 0.00 0.00 0.00 28 1002.4
20190123141215 31 46 3.0 5.0 0.00 0.00 0.00 28 1002.3
20190123140715 31 61 3.0 5.0 0.00 0.00 0.00 28 1002.2
20190123140215 31 49 3.0 5.0 0.00 0.00 0.00 28 1002.1
20190123135716 31 52 3.0 5.0 0.00 0.00 0.00 28 1002.1
20190123135215 31 65 3.0 5.0 0.00 0.00 0.00 28 1002.1
20190123134716 31 68 2.0 7.0 0.00 0.00 0.00 28 1002.0
20190123134215 31 46 3.0 7.0 0.00 0.00 0.00 28 1002.0
20190123133715 31 60 4.0 7.0 0.00 0.00 0.00 28 1001.9
20190123133215 31 78 4.0 7.0 0.00 0.00 0.00 28 1001.9
20190123132716 31 84 3.0 9.0 0.00 0.00 0.00 28 1001.8
20190123132215 31 85 4.0 9.0 0.00 0.00 0.00 28 1001.8
20190123131715 31 72 3.0 9.0 0.00 0.00 0.00 28 1001.7
20190123131215 31 72 3.0 6.0 0.00 0.00 0.00 28 1001.7
20190123130715 31 68 3.0 5.0 0.00 0.00 0.00 28 1001.7
20190123130215 30 69 3.0 8.0 0.00 0.00 0.00 28 1001.6
20190123125715 31 64 3.0 8.0 0.00 0.00 0.00 28 1001.6
20190123125215 30 61 3.0 8.0 0.00 0.00 0.00 28 1001.6
20190123124715 30 78 3.0 7.0 0.00 0.00 0.00 28 1001.6
20190123124216 30 78 4.0 9.0 0.00 0.00 0.00 27 1001.5
20190123123715 30 82 4.0 9.0 0.00 0.00 0.00 27 1001.5
20190123123215 30 77 4.0 9.0 0.00 0.00 0.00 27 1001.5
20190123122715 30 81 3.0 6.0 0.00 0.00 0.00 28 1001.4
20190123122215 30 59 3.0 6.0 0.00 0.00 0.00 28 1001.4
20190123121715 30 65 3.0 7.0 0.00 0.00 0.00 28 1001.4
20190123121215 30 63 3.0 7.0 0.00 0.00 0.00 28 1001.3
20190123120715 30 33 3.0 7.0 0.00 0.00 0.00 28 1001.1
20190123120215 30 76 3.0 7.0 0.00 0.00 0.00 28 1001.3
20190123115715 30 59 3.0 7.0 0.00 0.00 0.00 28 1001.3
20190123115215 30 59 3.0 8.0 0.00 0.00 0.00 28 1001.1
20190123114716 30 55 3.0 8.0 0.00 0.00 0.00 28 1001.1
20190123114215 30 56 3.0 8.0 0.00 0.00 0.00 28 1001.1
20190123113715 30 32 3.0 8.0 0.00 0.00 0.00 28 1001.1
20190123113215 30 62 3.0 8.0 0.00 0.00 0.00 28 1001.1
20190123112715 30 61 3.0 8.0 0.00 0.00 0.00 28 1001.1
20190123112216 30 71 3.0 9.0 0.00 0.00 0.00 28 1001.0
20190123111715 30 63 4.0 9.0 0.00 0.00 0.00 28 1001.0
20190123111215 30 74 4.0 9.0 0.00 0.00 0.00 28 1001.0
20190123110715 29 53 5.0 10.0 0.00 0.00 0.00 28 1001.0
20190123110216 29 55 6.0 11.0 0.00 0.00 0.00 28 1000.9
20190123105715 29 61 6.0 11.0 0.00 0.00 0.00 28 1001.0
20190123105215 29 69 6.0 11.0 0.00 0.00 0.00 28 1001.0
20190123104715 30 63 5.0 11.0 0.00 0.00 0.00 28 1001.0
20190123104215 30 70 3.0 7.0 0.00 0.00 0.00 28 1001.0
20190123103715 30 76 3.0 8.0 0.00 0.00 0.00 28 1001.0
20190123103215 30 98 4.0 8.0 0.00 0.00 0.00 28 1001.0
20190123102715 30 76 4.0 8.0 0.00 0.00 0.00 28 1001.0
20190123102215 30 73 4.0 8.0 0.00 0.00 0.00 28 1000.9
20190123101715 29 76 4.0 9.0 0.00 0.00 0.00 28 1000.9
20190123101215 29 67 5.0 9.0 0.00 0.00 0.00 28 1000.9
20190123100716 29 87 5.0 9.0 0.00 0.00 0.00 28 1000.9
20190123100215 29 78 4.0 9.0 0.00 0.00 0.00 28 1000.9
20190123095715 29 76 4.0 9.0 0.00 0.00 0.00 28 1000.9
20190123095215 29 64 3.0 9.0 0.00 0.00 0.00 28 1000.8
20190123094716 29 59 3.0 9.0 0.00 0.00 0.00 28 1000.8
20190123094215 29 54 3.0 10.0 0.00 0.00 0.00 28 1000.7
20190123093715 29 38 3.0 10.0 0.00 0.00 0.00 28 1000.7
20190123093215 29 63 4.0 10.0 0.00 0.00 0.00 28 1000.6
20190123092716 29 69 3.0 6.0 0.00 0.00 0.00 28 1000.7
20190123092215 29 51 3.0 6.0 0.00 0.00 0.00 28 1000.6
20190123091715 29 65 3.0 6.0 0.00 0.00 0.00 28 1000.6
20190123091215 29 57 3.0 6.0 0.00 0.00 0.00 28 1000.6
20190123090716 29 57 3.0 6.0 0.00 0.00 0.00 28 1000.7
20190123090215 29 55 3.0 7.0 0.00 0.00 0.00 28 1000.7
20190123085715 29 75 3.0 9.0 0.00 0.00 0.00 28 1000.6
20190123085214 29 59 3.0 9.0 0.00 0.00 0.00 28 1000.6
20190123084715 29 76 4.0 9.0 0.00 0.00 0.00 28 1000.6
20190123084215 29 73 3.0 7.0 0.00 0.00 0.00 28 1000.6
20190123083716 29 70 3.0 7.0 0.00 0.00 0.00 28 1000.6
20190123083215 29 35 3.0 9.0 0.00 0.00 0.00 28 1000.6
20190123082716 29 75 3.0 9.0 0.00 0.00 0.00 28 1000.5
20190123082215 29 52 3.0 9.0 0.00 0.00 0.00 28 1000.5
20190123081715 29 41 2.0 6.0 0.00 0.00 0.00 28 1000.5
20190123081216 29 65 2.0 7.0 0.00 0.00 0.00 27 1000.5
20190123080716 29 48 3.0 8.0 0.00 0.00 0.00 27 1000.4
20190123080215 29 42 3.0 8.0 0.00 0.00 0.00 27 1000.5
20190123075716 29 83 3.0 9.0 0.00 0.00 0.00 27 1000.4
20190123075216 29 64 4.0 11.0 0.00 0.00 0.00 27 1000.4
20190123074715 29 62 4.0 11.0 0.00 0.00 0.00 27 1000.4
20190123074215 29 56 5.0 11.0 0.00 0.00 0.00 27 1000.3
20190123073715 29 76 6.0 12.0 0.00 0.00 0.00 27 1000.3
20190123073215 29 58 6.0 12.0 0.00 0.00 0.00 27 1000.3
20190123072715 29 82 7.0 13.0 0.00 0.00 0.00 27 1000.3
20190123072215 29 65 7.0 13.0 0.00 0.00 0.00 27 1000.3
20190123071715 29 62 8.0 14.0 0.00 0.00 0.00 27 1000.3
20190123071215 29 66 8.0 14.0 0.00 0.00 0.00 27 1000.2
20190123070716 29 67 7.0 14.0 0.00 0.00 0.00 27 1000.2
20190123070215 29 49 6.0 11.0 0.00 0.00 0.00 27 1000.2
20190123065716 29 64 6.0 11.0 0.00 0.00 0.00 27 1000.3
20190123065215 29 58 6.0 11.0 0.00 0.00 0.00 27 1000.4
20190123064715 29 49 5.0 11.0 0.00 0.00 0.00 27 1000.4
20190123064215 29 46 5.0 11.0 0.00 0.00 0.00 27 1000.3
20190123063715 28 52 4.0 10.0 0.00 0.00 0.00 27 1000.4
20190123063215 28 61 4.0 10.0 0.00 0.00 0.00 27 1000.4
20190123062715 28 46 5.0 10.0 0.00 0.00 0.00 27 1000.4
20190123062215 28 67 5.0 11.0 0.00 0.00 0.00 27 1000.4
20190123061715 28 83 5.0 11.0 0.00 0.00 0.00 27 1000.4
20190123061216 28 76 5.0 11.0 0.00 0.00 0.00 27 1000.4
20190123060714 28 69 4.0 10.0 0.00 0.00 0.00 27 1000.4
20190123060216 28 78 4.0 8.0 0.00 0.00 0.00 27 1000.4
20190123055716 28 61 4.0 10.0 0.00 0.00 0.00 27 1000.4
20190123055215 28 69 4.0 10.0 0.00 0.00 0.00 27 1000.4
20190123054715 28 78 4.0 10.0 0.00 0.00 0.00 27 1000.4
20190123054215 28 67 4.0 10.0 0.00 0.00 0.00 27 1000.4
20190123053715 28 71 5.0 10.0 0.00 0.00 0.00 27 1000.4
20190123053215 28 51 4.0 9.0 0.00 0.00 0.00 27 1000.4
20190123052715 28 79 5.0 10.0 0.00 0.00 0.00 27 1000.4
20190123052216 28 77 5.0 10.0 0.00 0.00 0.00 27 1000.5
20190123051716 28 61 5.0 10.0 0.00 0.00 0.00 27 1000.5
20190123051215 28 77 5.0 10.0 0.00 0.00 0.00 27 1000.5
20190123050716 28 63 5.0 14.0 0.00 0.00 0.00 27 1000.5
20190123050215 28 59 6.0 14.0 0.00 0.00 0.00 27 1000.6
20190123045716 28 64 7.0 14.0 0.00 0.00 0.00 27 1000.6
20190123045215 28 67 6.0 12.0 0.00 0.00 0.00 27 1000.6
20190123044719 28 67 5.0 10.0 0.00 0.00 0.00 27 1000.7
20190123044216 28 71 5.0 10.0 0.00 0.00 0.00 27 1000.8
20190123043715 28 57 5.0 10.0 0.00 0.00 0.00 27 1000.8
20190123043216 28 61 5.0 10.0 0.00 0.00 0.00 27 1000.9
20190123042715 28 73 5.0 10.0 0.00 0.00 0.00 27 1000.9
20190123042215 28 84 5.0 10.0 0.00 0.00 0.00 27 1000.9
20190123041715 28 57 5.0 10.0 0.00 0.00 0.00 27 1001.0
20190123041215 28 90 4.0 9.0 0.00 0.00 0.00 27 1001.1
20190123040715 28 54 3.0 8.0 0.00 0.00 0.00 27 1001.1
20190123040216 28 64 3.0 8.0 0.00 0.00 0.00 27 1001.3
20190123035715 28 101 3.0 6.0 0.00 0.00 0.00 27 1001.4
20190123035215 28 109 3.0 8.0 0.00 0.00 0.00 27 1001.5
20190123034715 28 87 3.0 8.0 0.00 0.00 0.00 27 1001.5
20190123034215 28 80 4.0 8.0 0.00 0.00 0.00 27 1001.5
20190123033715 28 77 3.0 7.0 0.00 0.00 0.00 27 1001.5
20190123033216 28 88 3.0 7.0 0.00 0.00 0.00 27 1001.5
20190123032715 28 92 4.0 7.0 0.00 0.00 0.00 27 1001.6
20190123032216 28 80 3.0 8.0 0.00 0.00 0.00 27 1001.6
20190123031714 28 75 3.0 9.0 0.00 0.00 0.00 27 1001.7
20190123031216 28 80 3.0 9.0 0.00 0.00 0.00 27 1001.7
20190123030715 28 68 3.0 9.0 0.00 0.00 0.00 27 1001.7
20190123030216 28 59 4.0 8.0 0.00 0.00 0.00 27 1001.7
20190123025715 28 74 4.0 8.0 0.00 0.00 0.00 27 1001.7
20190123025215 28 73 4.0 8.0 0.00 0.00 0.00 27 1001.9
20190123024715 28 72 3.0 8.0 0.00 0.00 0.00 27 1001.9
20190123024215 28 68 3.0 7.0 0.00 0.00 0.00 27 1001.9
20190123023715 28 63 4.0 7.0 0.00 0.00 0.00 27 1002.1
20190123023216 28 70 4.0 9.0 0.00 0.00 0.00 27 1002.1
20190123022715 28 84 3.0 9.0 0.00 0.00 0.00 27 1002.1
20190123022216 28 57 4.0 9.0 0.00 0.00 0.00 27 1002.3
20190123021715 28 70 4.0 10.0 0.00 0.00 0.00 27 1002.3
20190123021215 28 69 5.0 10.0 0.00 0.00 0.00 27 1002.3
20190123020715 28 71 5.0 10.0 0.00 0.00 0.00 27 1002.4
20190123020215 28 72 4.0 9.0 0.00 0.00 0.00 27 1002.5
20190123015715 28 71 4.0 9.0 0.00 0.00 0.00 27 1002.5
20190123015215 28 82 4.0 11.0 0.00 0.00 0.00 27 1002.5
20190123014715 28 75 5.0 11.0 0.00 0.00 0.00 27 1002.6
20190123014215 28 72 5.0 11.0 0.00 0.00 0.00 27 1002.7
20190123013715 28 75 5.0 9.0 0.00 0.00 0.00 27 1002.7
20190123013215 28 88 3.0 9.0 0.00 0.00 0.00 27 1002.7
20190123012715 28 86 1.0 0.0 0.00 0.00 0.00 27 1002.8
20190123012215 28 69 0.0 0.0 0.00 0.00 0.00 27 1002.9
20190123011716 28 80 0.0 8.0 0.00 0.00 0.00 27 1002.9
20190123011214 28 81 0.0 8.0 0.00 0.00 0.00 27 1003.0
20190123010715 28 72 1.0 8.0 0.00 0.00 0.00 27 1003.1
20190123010215 28 79 1.0 7.0 0.00 0.00 0.00 27 1003.2
20190123005715 28 74 0.0 4.0 0.00 0.00 0.00 27 1003.2
20190123005215 28 73 0.0 4.0 0.00 0.00 0.00 27 1003.3
20190123004716 28 73 0.0 4.0 0.00 0.00 0.00 27 1003.4
20190123004215 28 91 0.0 0.0 0.00 0.00 0.00 27 1003.4
20190123003717 28 74 0.0 0.0 0.00 0.00 0.00 27 1003.5